Regional Weather Roundup
Issued by NWS

Home | Current Version | Previous Version | Text Only | Print | Product List | Glossary Off
Versions: 1 2 3 4 5 6 7 8 9 10 11 12 13 14 15 16 17 18 19 20 21 22 23 24 25 26 27 28 29 30 31 32 33 34 35 36 37 38 39 40 41 42 43 44 45 46 47 48 49 50

926
ASUS43 KLSX 050757
RWRMO

WEATHER SUMMARY FOR MISSOURI
NATIONAL WEATHER SERVICE SPRINGFIELD MO
300 AM CDT THU MAY 05 2016

NOTE: "FAIR" INDICATES FEW OR NO CLOUDS BELOW 12,000 FEET WITH NO
       SIGNIFICANT WEATHER AND/OR OBSTRUCTIONS TO VISIBILITY.
       CURRENT SKY AND/OR WEATHER CONDITIONS ARE NOT AVAILABLE FOR
       CHILLICOTHE AND FARMINGTON.

MOZ001>031-035>038-043-044-053-054-050900-
...NORTHERN AND WESTERN MISSOURI...

CITY           SKY/WX    TMP DP  RH WIND       PRES   REMARKS
KANSAS CTY INT PTCLDY    50  40  68 NW8       30.00F
LEE`S SUMMIT   CLEAR     49  40  71 SW3       30.00F
ST JOSEPH      CLEAR     46  43  89 CALM      30.01S
CHILLICOTHE      N/A     46  40  79 CALM      29.99S

$$
MOZ066>068-077>081-088>096-101>105-050900-
...SOUTHWEST MISSOURI...

CITY           SKY/WX    TMP DP  RH WIND       PRES   REMARKS
SPRINGFIELD    CLEAR     47  38  71 CALM      29.97F
JOPLIN         CLEAR     46  42  86 CALM      30.01F

$$
MOZ032>034-039>042-045>050-055>058-069>072-050900-
...CENTRAL MISSOURI...

CITY           SKY/WX    TMP DP  RH WIND       PRES   REMARKS
COLUMBIA       NOT AVBL
JEFFERSON CITY CLEAR     46  41  82 CALM      29.94S
ROLLA          CLEAR     48  37  65 NW8       29.91F
SEDALIA        CLEAR     52  39  61 W9        29.97F
WARRENSBURG    CLEAR     46  39  76 W3        29.98F

$$
MOZ051-052-059>065-050900-
...EAST CENTRAL MISSOURI...

CITY           SKY/WX    TMP DP  RH WIND       PRES   REMARKS
ST LOUIS INTL  PTCLDY    49  39  68 NW6       29.88F

$$
MOZ072>076-082>087-097>100-106>115-050900-
...SOUTH CENTRAL AND SOUTHEAST MISSOURI...

CITY           SKY/WX    TMP DP  RH WIND       PRES   REMARKS
CAPE GIRARDEAU CLEAR     45  40  82 W7        29.86F
POPLAR BLUFF   CLEAR     49  39  68 W5        29.88F
WEST PLAINS    CLEAR     46  35  65 W6        29.95F

$$



USA.gov is the U.S. government's official web portal to all federal, state and local government web resources and services.